Lid_Strength_Index
2 5 2 4 11 11 15 12 9 9 9 7 5 7 8 8 9 12 3 1 0 0 -0 -0 -1 -1 -1 -1 -2 -2 -2 -2 -2 -2 -2 -2 -2 -2 -2 -2 -2 -3 -2 -2 -2 -2 -2 -2 -2
4 3 5 7 13 16 15 9 10 8 7 7 6 6 8 10 5 5 3 1 -0 -0 -0 -0 -0 -1 -1 -1 -2 -2 -2 -2 -2 -2 -2 -2 -2 -2 -2 -2 -2 -3 -2 -2 -2 -2 -2 -2 -2
5 5 9 10 13 15 14 10 9 7 7 7 7 6 7 8 5 4 1 0 -0 -0 -0 -0 -0 -1 -1 -2 -2 -1 -2 -2 -2 -2 -2 -2 -2 -2 -2 -2 -3 -3 -2 -2 -2 -2 -2 -2 -2
7 8 9 12 13 11 11 8 7 7 8 7 7 9 6 3 4 2 0 0 0 0 -0 -0 -1 -1 -1 -1 -1 -1 -2 -2 -2 -2 -2 -2 -2 -2 -2 -2 -3 -3 -2 -2 -2 -2 -2 -2 -2
7 9 12 13 13 11 9 7 7 8 8 8 7 10 8 4 2 1 1 0 1 0 -0 -0 -0 -1 -1 -1 -1 -1 -1 -2 -2 -2 -2 -2 -2 -2 -2 -2 -2 -2 -2 -2 -2 -2 -2 -2 -2
10 9 13 14 12 9 9 6 7 7 7 7 8 8 8 3 2 1 1 1 0 0 -0 -0 1 0 -1 -1 -1 -1 -1 -1 -2 -2 -2 -2 -2 -2 -2 -3 -2 -2 -2 -2 -2 -2 -1 -2 -1
11 11 12 13 12 10 9 9 10 9 8 8 6 9 7 4 3 1 1 1 0 0 -0 -0 -0 0 1 0 -0 -1 -1 -1 -1 -2 -2 -2 -2 -2 -2 -2 -3 -2 -2 -2 -1 -1 -1 -1 -1
10 11 12 11 12 11 10 10 9 7 8 6 5 9 9 4 2 1 1 1 1 1 -0 -0 0 -0 -0 0 1 1 -0 -1 -1 -1 -1 -0 -1 -1 -1 -1 -2 -2 -1 -1 -1 -1 -1 -1 -1
8 13 13 11 11 10 10 11 9 9 7 6 6 6 4 3 2 2 2 2 2 1 0 0 0 -0 0 0 1 2 1 0 0 0 1 1 1 1 0 0 -1 -2 -1 -1 -0 -0 -1 -2 -2
11 13 11 9 10 12 11 11 11 9 8 8 7 4 3 3 3 4 4 3 3 2 1 0 1 0 0 -0 0 0 -0 0 -0 0 1 1 1 2 1 1 0 -0 -0 -1 -1 -1 -1 -1 1
9 12 9 9 11 11 11 12 11 10 11 9 8 6 4 4 4 4 4 3 3 2 1 0 0 0 0 0 1 1 0 0 0 0 1 1 1 2 2 3 2 2 2 2 0 1 1 1 1
11 9 8 8 9 10 12 11 12 11 11 10 5 4 4 5 5 4 4 4 4 3 1 0 0 0 0 0 0 0 0 0 1 1 1 1 2 3 3 3 3 3 3 3 3 3 3 2 1
10 8 8 7 7 10 10 11 12 12 10 7 5 4 5 5 4 4 3 3 3 3 1 1 1 1 0 0 -0 0 0 0 1 1 1 1 2 3 3 3 3 3 3 3 3 3 2 2 2
8 8 8 8 8 8 11 12 11 11 10 8 5 5 5 5 4 4 4 3 3 2 2 1 1 1 0 0 0 0 0 0 1 1 1 1 1 2 3 3 3 2 2 2 3 2 2 2 2
8 10 9 9 10 9 9 11 12 10 10 10 10 6 5 4 4 4 3 3 3 2 1 1 1 0 0 0 -0 -0 -0 0 1 1 2 1 2 2 2 3 3 2 2 2 2 3 3 3 2
11 11 14 10 10 10 9 13 10 10 11 11 11 11 7 5 4 3 3 3 2 2 2 2 1 1 1 0 0 0 0 0 0 1 1 0 1 1 2 2 2 2 2 2 3 3 3 2 3
13 16 16 14 9 10 11 12 8 8 10 11 11 11 11 10 8 4 3 2 2 2 2 2 2 2 2 1 0 0 1 1 1 1 -0 0 -0 0 1 1 1 0 1 1 1 1 1 2 1
17 17 15 15 13 11 12 13 10 10 10 11 12 12 11 11 10 8 3 2 2 2 2 2 2 2 2 1 0 1 1 1 1 1 0 0 -0 -0 0 0 0 0 0 0 1 1 1 1 1
14 15 16 14 14 15 14 13 12 11 12 13 13 12 12 12 11 9 5 3 3 2 2 2 2 2 2 2 2 1 2 1 1 1 0 0 -0 -0 0 0 0 0 1 1 1 1 1 1 2
14 16 17 15 14 15 16 16 13 13 13 11 11 12 12 12 12 11 8 6 5 4 3 2 2 2 2 1 1 1 1 1 0 1 0 0 0 -0 0 0 0 1 1 1 1 1 2 1 2
13 15 16 16 15 16 18 19 17 14 14 13 12 11 11 11 12 12 12 11 12 11 11 3 2 2 2 1 2 1 1 1 1 1 1 0 0 0 0 1 0 1 1 1 1 1 1 2 3
14 11 12 14 17 21 18 23 19 16 15 14 13 12 12 12 11 11 11 11 11 12 11 11 2 2 1 1 2 2 2 3 2 1 0 0 0 0 0 1 1 0 0 0 1 1 1 2 3
12 10 11 13 17 19 21 22 20 17 17 16 15 14 13 12 12 12 12 11 11 11 11 11 9 6 5 1 1 2 2 1 1 1 1 1 1 0 0 0 0 0 1 0 1 2 2 1 2
8 11 12 13 16 22 20 21 21 19 16 16 14 13 13 13 13 13 13 13 13 12 12 12 12 12 9 6 2 2 2 2 2 2 2 1 1 1 1 1 1 1 1 1 1 1 1 1 1
10 14 19 21 23 23 18 20 19 16 15 15 14 14 14 14 14 15 15 15 14 14 13 12 13 13 11 10 10 8 5 5 3 3 2 3 4 4 5 4 4 3 3 3 2 2 4 4 3
12 13 18 23 23 20 16 20 18 13 12 12 13 13 14 15 15 16 16 16 15 15 15 15 15 15 13 12 11 11 10 9 9 9 8 8 8 8 8 8 7 7 7 6 6 7 7 6 7
13 15 13 16 21 21 17 17 14 12 12 12 12 13 15 15 15 16 16 17 17 17 17 16 16 16 15 13 13 12 12 10 10 10 10 10 10 10 11 11 10 9 9 9 8 8 9 9 9
11 10 16 17 25 25 19 18 18 14 12 11 12 14 14 15 16 17 17 18 18 18 18 17 17 17 16 15 14 14 13 13 12 12 12 11 11 10 11 11 11 11 11 10 10 11 11 11 12
12 14 13 14 17 21 22 19 13 12 12 11 12 12 14 14 16 18 18 18 18 18 18 18 18 17 17 16 15 15 14 13 13 13 13 13 13 13 13 13 13 12 12 13 13 13 13 14 14
11 13 13 18 21 18 17 18 11 12 11 11 13 13 14 15 16 16 17 18 18 18 18 18 18 17 17 16 16 16 15 14 15 15 15 14 15 15 15 15 15 15 15 15 15 16 16 16 16